Time,TemperatureF,DewpointF,PressureIn,WindDirection,WindDirectionDegrees,WindSpeedMPH,WindSpeedGustMPH,Humidity,HourlyPrecipIn,Conditions,Clouds,dailyrainin,SoftwareType,DateUTC
2015-05-24 00:02:00,63.1,52.8,29.97,South,180,14.0,14.0,69,0.00,,,0.00,Wunderground v.1.15,2015-05-24 07:02:00,
2015-05-24 00:08:00,62.6,53.1,29.96,SSW,195,11.0,14.0,71,0.00,,,0.00,Wunderground v.1.15,2015-05-24 07:08:00,
2015-05-24 00:14:00,62.6,53.1,29.96,SSW,198,12.0,16.0,71,0.00,,,0.00,Wunderground v.1.15,2015-05-24 07:14:00,
2015-05-24 00:19:00,62.7,53.2,29.96,SSW,206,12.0,19.0,71,0.00,,,0.00,Wunderground v.1.15,2015-05-24 07:19:00,
2015-05-24 00:25:00,62.6,53.1,29.96,SSW,209,15.0,15.0,71,0.00,,,0.00,Wunderground v.1.15,2015-05-24 07:25:00,
2015-05-24 00:30:00,62.6,53.1,29.97,SSW,205,12.0,12.0,71,0.00,,,0.00,Wunderground v.1.15,2015-05-24 07:30:00,
2015-05-24 00:36:00,62.9,53.4,29.96,South,189,12.0,15.0,71,0.00,,,0.00,Wunderground v.1.15,2015-05-24 07:36:00,
2015-05-24 00:41:00,62.7,53.2,29.97,SSW,202,11.0,12.0,71,0.00,,,0.00,Wunderground v.1.15,2015-05-24 07:41:00,
2015-05-24 00:47:00,62.6,53.1,29.97,SW,219,13.0,14.0,71,0.00,,,0.00,Wunderground v.1.15,2015-05-24 07:47:00,
2015-05-24 00:52:00,62.4,53.3,29.97,SSW,211,9.0,11.0,72,0.00,,,0.00,Wunderground v.1.15,2015-05-24 07:52:00,
2015-05-24 01:03:00,62.1,53.0,29.97,SW,219,6.0,8.0,72,0.00,,,0.00,Wunderground v.1.15,2015-05-24 08:03:00,
2015-05-24 01:09:00,61.9,52.8,29.97,SSW,211,6.0,8.0,72,0.00,,,0.00,Wunderground v.1.15,2015-05-24 08:09:00,
2015-05-24 01:15:00,61.8,53.1,29.97,SSW,205,5.0,7.0,73,0.00,,,0.00,Wunderground v.1.15,2015-05-24 08:15:00,
2015-05-24 01:20:00,61.7,53.0,29.98,SSW,206,5.0,5.0,73,0.00,,,0.00,Wunderground v.1.15,2015-05-24 08:20:00,
2015-05-24 01:25:00,62.0,52.9,29.98,South,184,6.0,6.0,72,0.00,,,0.00,Wunderground v.1.15,2015-05-24 08:25:00,
2015-05-24 01:31:00,61.9,52.8,29.98,SSW,192,1.0,5.0,72,0.00,,,0.00,Wunderground v.1.15,2015-05-24 08:31:00,
2015-05-24 01:37:00,61.6,52.9,29.98,SSW,192,0.0,5.0,73,0.00,,,0.00,Wunderground v.1.15,2015-05-24 08:37:00,
2015-05-24 01:42:00,61.3,52.6,29.98,SSW,192,3.0,3.0,73,0.00,,,0.00,Wunderground v.1.15,2015-05-24 08:42:00,
2015-05-24 01:48:00,61.0,52.7,29.98,SSW,192,3.0,4.0,74,0.00,,,0.00,Wunderground v.1.15,2015-05-24 08:48:00,
2015-05-24 01:53:00,61.0,52.7,29.99,SSW,192,2.0,3.0,74,0.00,,,0.00,Wunderground v.1.15,2015-05-24 08:53:00,
2015-05-24 01:59:00,61.0,52.7,29.99,SSW,192,2.0,3.0,74,0.00,,,0.00,Wunderground v.1.15,2015-05-24 08:59:00,
2015-05-24 02:04:00,61.0,52.7,29.99,SSW,192,0.0,2.0,74,0.00,,,0.00,Wunderground v.1.15,2015-05-24 09:04:00,
2015-05-24 02:09:00,60.9,52.6,29.99,SSW,192,0.0,2.0,74,0.00,,,0.00,Wunderground v.1.15,2015-05-24 09:09:00,
2015-05-24 02:14:00,60.8,52.5,29.99,SSW,192,0.0,0.0,74,0.00,,,0.00,Wunderground v.1.15,2015-05-24 09:14:00,
2015-05-24 02:19:00,60.6,52.3,29.99,SSW,192,0.0,0.0,74,0.00,,,0.00,Wunderground v.1.15,2015-05-24 09:19:00,
2015-05-24 02:24:00,60.5,52.5,29.99,SSW,192,0.0,0.0,75,0.00,,,0.00,Wunderground v.1.15,2015-05-24 09:24:00,
2015-05-24 02:29:00,60.4,52.4,29.99,SSW,192,0.0,0.0,75,0.00,,,0.00,Wunderground v.1.15,2015-05-24 09:29:00,
2015-05-24 02:34:00,60.5,52.5,29.99,SSW,192,0.0,0.0,75,0.00,,,0.00,Wunderground v.1.15,2015-05-24 09:34:00,
2015-05-24 02:39:00,60.8,52.8,29.99,SSW,192,0.0,0.0,75,0.00,,,0.00,Wunderground v.1.15,2015-05-24 09:39:00,
2015-05-24 02:44:00,60.9,52.6,29.99,SSW,192,0.0,0.0,74,0.00,,,0.00,Wunderground v.1.15,2015-05-24 09:44:00,
2015-05-24 02:49:00,60.9,52.9,29.99,SSW,192,0.0,0.0,75,0.00,,,0.00,Wunderground v.1.15,2015-05-24 09:49:00,
2015-05-24 02:54:00,61.0,53.0,29.99,SSW,192,2.0,3.0,75,0.00,,,0.00,Wunderground v.1.15,2015-05-24 09:54:00,
2015-05-24 02:59:00,61.2,52.8,29.99,SSW,192,0.0,3.0,74,0.00,,,0.00,Wunderground v.1.15,2015-05-24 09:59:00,
2015-05-24 03:04:00,61.0,52.7,29.99,SSW,192,0.0,4.0,74,0.00,,,0.00,Wunderground v.1.15,2015-05-24 10:04:00,
2015-05-24 03:09:00,60.9,52.6,29.99,SSW,192,0.0,4.0,74,0.00,,,0.00,Wunderground v.1.15,2015-05-24 10:09:00,
2015-05-24 03:14:00,60.7,52.7,29.99,SSW,192,0.0,1.0,75,0.00,,,0.00,Wunderground v.1.15,2015-05-24 10:14:00,
2015-05-24 03:19:00,60.7,52.4,29.99,SSW,192,0.0,3.0,74,0.00,,,0.00,Wunderground v.1.15,2015-05-24 10:19:00,
2015-05-24 03:24:00,60.4,52.4,29.99,SSW,192,0.0,2.0,75,0.00,,,0.00,Wunderground v.1.15,2015-05-24 10:24:00,
2015-05-24 03:29:00,60.4,52.4,29.99,SSW,192,1.0,2.0,75,0.00,,,0.00,Wunderground v.1.15,2015-05-24 10:29:00,
2015-05-24 03:34:00,60.4,52.4,29.99,SSW,192,0.0,2.0,75,0.00,,,0.00,Wunderground v.1.15,2015-05-24 10:34:00,
2015-05-24 03:39:00,60.5,52.2,29.99,SSW,192,0.0,1.0,74,0.00,,,0.00,Wunderground v.1.15,2015-05-24 10:39:00,
2015-05-24 03:45:00,60.5,52.2,29.98,SSW,192,1.0,4.0,74,0.00,,,0.00,Wunderground v.1.15,2015-05-24 10:45:00,
2015-05-24 03:50:00,60.3,52.3,29.98,SSW,192,0.0,1.0,75,0.00,,,0.00,Wunderground v.1.15,2015-05-24 10:50:00,
2015-05-24 03:55:00,60.0,52.1,29.98,SSW,192,0.0,1.0,75,0.00,,,0.00,Wunderground v.1.15,2015-05-24 10:55:00,
2015-05-24 04:00:00,59.6,52.0,29.98,SSW,192,0.0,0.0,76,0.00,,,0.00,Wunderground v.1.15,2015-05-24 11:00:00,
2015-05-24 04:05:00,59.3,51.7,29.98,SSW,192,0.0,0.0,76,0.00,,,0.00,Wunderground v.1.15,2015-05-24 11:05:00,
2015-05-24 04:10:00,59.0,51.8,29.98,SSW,192,0.0,0.0,77,0.00,,,0.00,Wunderground v.1.15,2015-05-24 11:10:00,
2015-05-24 04:15:00,58.9,52.1,29.99,SSW,192,0.0,0.0,78,0.00,,,0.00,Wunderground v.1.15,2015-05-24 11:15:00,
2015-05-24 04:20:00,58.8,52.0,29.98,SSW,192,0.0,0.0,78,0.00,,,0.00,Wunderground v.1.15,2015-05-24 11:20:00,
2015-05-24 04:26:00,58.8,52.0,29.99,SSW,192,0.0,0.0,78,0.00,,,0.00,Wunderground v.1.15,2015-05-24 11:26:00,
2015-05-24 04:31:00,58.9,52.1,29.98,SSW,192,0.0,0.0,78,0.00,,,0.00,Wunderground v.1.15,2015-05-24 11:31:00,
2015-05-24 04:36:00,59.0,52.1,29.99,SSW,192,0.0,0.0,78,0.00,,,0.00,Wunderground v.1.15,2015-05-24 11:36:00,
2015-05-24 04:41:00,59.0,52.1,29.99,SSW,192,0.0,0.0,78,0.00,,,0.00,Wunderground v.1.15,2015-05-24 11:41:00,
2015-05-24 04:46:00,58.8,52.0,29.99,SSW,192,0.0,0.0,78,0.00,,,0.00,Wunderground v.1.15,2015-05-24 11:46:00,
2015-05-24 04:51:00,58.8,52.0,29.98,SSW,192,0.0,0.0,78,0.00,,,0.00,Wunderground v.1.15,2015-05-24 11:51:00,
2015-05-24 04:56:00,58.9,52.1,29.98,SSW,192,0.0,0.0,78,0.00,,,0.00,Wunderground v.1.15,2015-05-24 11:56:00,
2015-05-24 05:01:00,58.9,52.1,29.98,SSW,192,0.0,0.0,78,0.00,,,0.00,Wunderground v.1.15,2015-05-24 12:01:00,
2015-05-24 05:06:00,58.9,52.1,29.98,SSW,192,0.0,0.0,78,0.00,,,0.00,Wunderground v.1.15,2015-05-24 12:06:00,
2015-05-24 05:11:00,58.9,52.1,29.98,SSW,192,0.0,0.0,78,0.00,,,0.00,Wunderground v.1.15,2015-05-24 12:11:00,
2015-05-24 05:16:00,58.9,52.1,29.98,SSW,192,0.0,0.0,78,0.00,,,0.00,Wunderground v.1.15,2015-05-24 12:16:00,
2015-05-24 05:21:00,58.6,51.8,29.98,SSW,192,0.0,0.0,78,0.00,,,0.00,Wunderground v.1.15,2015-05-24 12:21:00,
2015-05-24 05:26:00,58.4,51.9,29.98,SSW,192,0.0,0.0,79,0.00,,,0.00,Wunderground v.1.15,2015-05-24 12:26:00,
2015-05-24 05:31:00,58.5,52.0,29.98,SSW,192,0.0,0.0,79,0.00,,,0.00,Wunderground v.1.15,2015-05-24 12:31:00,
2015-05-24 05:36:00,58.7,51.9,29.98,SSW,193,0.0,0.0,78,0.00,,,0.00,Wunderground v.1.15,2015-05-24 12:36:00,
2015-05-24 05:41:00,58.6,52.1,29.98,SE,140,0.0,0.0,79,0.00,,,0.00,Wunderground v.1.15,2015-05-24 12:41:00,
2015-05-24 05:46:00,58.4,52.3,29.98,SE,140,0.0,0.0,80,0.00,,,0.00,Wunderground v.1.15,2015-05-24 12:46:00,
2015-05-24 05:51:00,58.3,52.2,29.98,SE,140,0.0,0.0,80,0.00,,,0.00,Wunderground v.1.15,2015-05-24 12:51:00,
2015-05-24 05:56:00,58.0,51.9,29.98,SE,140,0.0,2.0,80,0.00,,,0.00,Wunderground v.1.15,2015-05-24 12:56:00,
2015-05-24 06:01:00,57.6,51.8,29.98,SE,140,0.0,1.0,81,0.00,,,0.00,Wunderground v.1.15,2015-05-24 13:01:00,
2015-05-24 06:06:00,57.4,51.9,29.98,NE,36,1.0,1.0,82,0.00,,,0.00,Wunderground v.1.15,2015-05-24 13:06:00,
2015-05-24 06:11:00,57.4,51.9,29.98,NE,36,0.0,1.0,82,0.00,,,0.00,Wunderground v.1.15,2015-05-24 13:11:00,
2015-05-24 06:16:00,57.6,52.1,29.98,NE,36,1.0,1.0,82,0.00,,,0.00,Wunderground v.1.15,2015-05-24 13:16:00,
2015-05-24 06:21:00,58.0,52.9,29.98,NE,36,0.0,2.0,83,0.00,,,0.00,Wunderground v.1.15,2015-05-24 13:21:00,
2015-05-24 06:26:00,58.4,52.6,29.98,NE,36,0.0,2.0,81,0.00,,,0.00,Wunderground v.1.15,2015-05-24 13:26:00,
2015-05-24 06:31:00,58.9,53.1,29.97,NE,36,0.0,0.0,81,0.00,,,0.00,Wunderground v.1.15,2015-05-24 13:31:00,
2015-05-24 06:36:00,59.6,53.8,29.98,NE,36,0.0,0.0,81,0.00,,,0.00,Wunderground v.1.15,2015-05-24 13:36:00,
2015-05-24 06:41:00,60.5,53.6,29.98,NE,36,0.0,0.0,78,0.00,,,0.00,Wunderground v.1.15,2015-05-24 13:41:00,
2015-05-24 06:46:00,60.9,54.0,29.98,NE,36,2.0,2.0,78,0.00,,,0.00,Wunderground v.1.15,2015-05-24 13:46:00,
2015-05-24 06:51:00,59.4,52.9,29.98,WSW,238,1.0,2.0,79,0.00,,,0.00,Wunderground v.1.15,2015-05-24 13:51:00,
2015-05-24 06:56:00,58.4,52.6,29.98,WSW,242,0.0,5.0,81,0.00,,,0.00,Wunderground v.1.15,2015-05-24 13:56:00,
2015-05-24 07:01:00,58.4,52.9,29.98,WSW,242,0.0,1.0,82,0.00,,,0.00,Wunderground v.1.15,2015-05-24 14:01:00,
2015-05-24 07:06:00,58.6,53.1,29.98,WSW,242,0.0,1.0,82,0.00,,,0.00,Wunderground v.1.15,2015-05-24 14:06:00,
2015-05-24 07:11:00,59.1,53.3,29.98,WSW,242,0.0,0.0,81,0.00,,,0.00,Wunderground v.1.15,2015-05-24 14:11:00,
2015-05-24 07:16:00,59.6,53.8,29.98,WSW,242,0.0,1.0,81,0.00,,,0.00,Wunderground v.1.15,2015-05-24 14:16:00,
2015-05-24 07:21:00,59.8,53.6,29.98,WSW,240,3.0,4.0,80,0.00,,,0.00,Wunderground v.1.15,2015-05-24 14:21:00,
2015-05-24 07:26:00,60.0,53.8,29.98,WSW,240,1.0,4.0,80,0.00,,,0.00,Wunderground v.1.15,2015-05-24 14:26:00,
2015-05-24 07:31:00,60.3,54.1,29.97,WSW,240,0.0,2.0,80,0.00,,,0.00,Wunderground v.1.15,2015-05-24 14:31:00,
2015-05-24 07:41:00,61.0,53.7,29.97,WSW,240,1.0,3.0,77,0.00,,,0.00,Wunderground v.1.15,2015-05-24 14:41:00,
2015-05-24 07:46:00,61.3,53.7,29.97,WSW,240,3.0,3.0,76,0.00,,,0.00,Wunderground v.1.15,2015-05-24 14:46:00,
2015-05-24 07:51:00,61.7,53.7,29.97,WSW,240,0.0,1.0,75,0.00,,,0.00,Wunderground v.1.15,2015-05-24 14:51:00,
2015-05-24 07:56:00,62.3,53.9,29.97,WSW,240,0.0,4.0,74,0.00,,,0.00,Wunderground v.1.15,2015-05-24 14:56:00,
2015-05-24 08:01:00,62.7,53.9,29.97,WSW,248,3.0,5.0,73,0.00,,,0.00,Wunderground v.1.15,2015-05-24 15:01:00,
2015-05-24 08:07:00,62.9,53.7,29.97,WSW,248,4.0,5.0,72,0.00,,,0.00,Wunderground v.1.15,2015-05-24 15:07:00,
2015-05-24 08:12:00,62.9,53.0,29.97,WSW,249,1.0,4.0,70,0.00,,,0.00,Wunderground v.1.15,2015-05-24 15:12:00,
2015-05-24 08:17:00,62.9,53.0,29.97,WSW,246,2.0,5.0,70,0.00,,,0.00,Wunderground v.1.15,2015-05-24 15:17:00,
2015-05-24 08:22:00,62.9,53.4,29.97,WSW,246,1.0,3.0,71,0.00,,,0.00,Wunderground v.1.15,2015-05-24 15:22:00,
2015-05-24 08:27:00,63.2,52.9,29.97,SW,234,1.0,5.0,69,0.00,,,0.00,Wunderground v.1.15,2015-05-24 15:27:00,
2015-05-24 08:32:00,63.6,53.6,29.97,WSW,247,4.0,5.0,70,0.00,,,0.00,Wunderground v.1.15,2015-05-24 15:32:00,
2015-05-24 08:37:00,63.7,52.9,29.97,WSW,248,3.0,5.0,68,0.00,,,0.00,Wunderground v.1.15,2015-05-24 15:37:00,
2015-05-24 08:42:00,63.7,52.5,29.97,West,261,3.0,3.0,67,0.00,,,0.00,Wunderground v.1.15,2015-05-24 15:42:00,
2015-05-24 08:47:00,64.0,52.4,29.96,West,261,3.0,6.0,66,0.00,,,0.00,Wunderground v.1.15,2015-05-24 15:47:00,
2015-05-24 08:52:00,64.3,52.7,29.96,WSW,237,3.0,5.0,66,0.00,,,0.00,Wunderground v.1.15,2015-05-24 15:52:00,
2015-05-24 08:57:00,64.1,52.1,29.96,SSW,208,0.0,6.0,65,0.00,,,0.00,Wunderground v.1.15,2015-05-24 15:57:00,
2015-05-24 09:02:00,64.4,52.0,29.96,SSW,208,0.0,3.0,64,0.00,,,0.00,Wunderground v.1.15,2015-05-24 16:02:00,
2015-05-24 09:07:00,65.0,52.5,29.96,SSW,208,1.0,3.0,64,0.00,,,0.00,Wunderground v.1.15,2015-05-24 16:07:00,
2015-05-24 09:12:00,65.5,53.0,29.96,SW,232,2.0,4.0,64,0.00,,,0.00,Wunderground v.1.15,2015-05-24 16:12:00,
2015-05-24 09:17:00,65.6,52.7,29.96,SW,231,1.0,4.0,63,0.00,,,0.00,Wunderground v.1.15,2015-05-24 16:17:00,
2015-05-24 09:22:00,66.1,53.1,29.95,WNW,283,4.0,5.0,63,0.00,,,0.00,Wunderground v.1.15,2015-05-24 16:22:00,
2015-05-24 09:27:00,65.6,53.5,29.95,South,175,0.0,6.0,65,0.00,,,0.00,Wunderground v.1.15,2015-05-24 16:27:00,
2015-05-24 09:32:00,66.7,54.1,29.95,South,186,0.0,2.0,64,0.00,,,0.00,Wunderground v.1.15,2015-05-24 16:32:00,
2015-05-24 09:42:00,66.9,53.0,29.95,SSW,202,0.0,5.0,61,0.00,,,0.00,Wunderground v.1.15,2015-05-24 16:42:00,
2015-05-24 09:47:00,67.3,53.8,29.94,SSW,201,3.0,5.0,62,0.00,,,0.00,Wunderground v.1.15,2015-05-24 16:47:00,
2015-05-24 09:52:00,67.3,53.4,29.94,SSW,201,0.0,2.0,61,0.00,,,0.00,Wunderground v.1.15,2015-05-24 16:52:00,
2015-05-24 09:57:00,68.2,54.2,29.94,SSW,202,0.0,4.0,61,0.00,,,0.00,Wunderground v.1.15,2015-05-24 16:57:00,
2015-05-24 10:02:00,68.0,53.1,29.94,SSE,168,1.0,5.0,59,0.00,,,0.00,Wunderground v.1.15,2015-05-24 17:02:00,
2015-05-24 10:07:00,68.5,54.1,29.94,SSE,168,3.0,5.0,60,0.00,,,0.00,Wunderground v.1.15,2015-05-24 17:07:00,
2015-05-24 10:12:00,68.0,52.7,29.94,South,171,6.0,6.0,58,0.00,,,0.00,Wunderground v.1.15,2015-05-24 17:12:00,
2015-05-24 10:17:00,68.0,53.1,29.94,South,174,1.0,6.0,59,0.00,,,0.00,Wunderground v.1.15,2015-05-24 17:17:00,
2015-05-24 10:22:00,69.1,54.6,29.94,South,174,0.0,2.0,60,0.00,,,0.00,Wunderground v.1.15,2015-05-24 17:22:00,
2015-05-24 10:27:00,70.1,54.2,29.94,SW,234,4.0,5.0,57,0.00,,,0.00,Wunderground v.1.15,2015-05-24 17:27:00,
2015-05-24 10:32:00,69.0,53.1,29.93,SW,227,1.0,7.0,57,0.00,,,0.00,Wunderground v.1.15,2015-05-24 17:32:00,
2015-05-24 10:38:00,68.4,52.6,29.93,SW,216,0.0,8.0,57,0.00,,,0.00,Wunderground v.1.15,2015-05-24 17:38:00,
2015-05-24 10:43:00,69.2,51.8,29.93,South,190,3.0,4.0,54,0.00,,,0.00,Wunderground v.1.15,2015-05-24 17:43:00,
2015-05-24 10:49:00,69.9,52.5,29.93,South,190,0.0,4.0,54,0.00,,,0.00,Wunderground v.1.15,2015-05-24 17:49:00,
2015-05-24 10:54:00,70.0,53.1,29.93,WSW,248,4.0,8.0,55,0.00,,,0.00,Wunderground v.1.15,2015-05-24 17:54:00,
2015-05-24 10:59:00,69.6,52.7,29.93,West,280,6.0,8.0,55,0.00,,,0.00,Wunderground v.1.15,2015-05-24 17:59:00,
2015-05-24 11:04:00,69.5,52.1,29.93,WSW,240,0.0,7.0,54,0.00,,,0.00,Wunderground v.1.15,2015-05-24 18:04:00,
2015-05-24 11:09:00,70.6,53.1,29.92,West,271,0.0,7.0,54,0.00,,,0.00,Wunderground v.1.15,2015-05-24 18:09:00,
2015-05-24 11:14:00,71.3,52.8,29.92,West,259,0.0,4.0,52,0.00,,,0.00,Wunderground v.1.15,2015-05-24 18:14:00,
2015-05-24 11:19:00,70.8,49.0,29.92,SSW,198,7.0,8.0,46,0.00,,,0.00,Wunderground v.1.15,2015-05-24 18:19:00,
2015-05-24 11:24:00,70.5,48.7,29.92,SE,127,0.0,6.0,46,0.00,,,0.00,Wunderground v.1.15,2015-05-24 18:24:00,
2015-05-24 11:29:00,70.8,48.4,29.92,SE,126,2.0,6.0,45,0.00,,,0.00,Wunderground v.1.15,2015-05-24 18:29:00,
2015-05-24 11:34:00,71.4,48.3,29.92,North,9,3.0,5.0,44,0.00,,,0.00,Wunderground v.1.15,2015-05-24 18:34:00,
2015-05-24 11:39:00,71.7,47.4,29.92,NNW,331,1.0,5.0,42,0.00,,,0.00,Wunderground v.1.15,2015-05-24 18:39:00,
2015-05-24 11:44:00,71.8,48.7,29.92,South,178,6.0,8.0,44,0.00,,,0.00,Wunderground v.1.15,2015-05-24 18:44:00,
2015-05-24 11:50:00,71.9,48.2,29.92,SSE,151,7.0,7.0,43,0.00,,,0.00,Wunderground v.1.15,2015-05-24 18:50:00,
2015-05-24 11:55:00,71.8,47.5,29.91,SSE,159,2.0,10.0,42,0.00,,,0.00,Wunderground v.1.15,2015-05-24 18:55:00,
2015-05-24 12:00:00,71.8,47.5,29.91,SE,145,2.0,5.0,42,0.00,,,0.00,Wunderground v.1.15,2015-05-24 19:00:00,
2015-05-24 12:05:00,71.9,47.6,29.91,SE,145,0.0,5.0,42,0.00,,,0.00,Wunderground v.1.15,2015-05-24 19:05:00,
2015-05-24 12:10:00,72.8,46.4,29.91,SE,145,0.0,1.0,39,0.00,,,0.00,Wunderground v.1.15,2015-05-24 19:10:00,
2015-05-24 12:15:00,73.0,45.9,29.91,South,191,2.0,5.0,38,0.00,,,0.00,Wunderground v.1.15,2015-05-24 19:15:00,
2015-05-24 12:20:00,73.0,47.2,29.91,SSW,208,3.0,8.0,40,0.00,,,0.00,Wunderground v.1.15,2015-05-24 19:20:00,
2015-05-24 12:25:00,72.8,47.1,29.90,WNW,296,4.0,9.0,40,0.00,,,0.00,Wunderground v.1.15,2015-05-24 19:25:00,
2015-05-24 12:30:00,73.3,46.2,29.90,South,182,1.0,4.0,38,0.00,,,0.00,Wunderground v.1.15,2015-05-24 19:30:00,
2015-05-24 12:35:00,73.0,44.5,29.90,East,87,3.0,7.0,36,0.00,,,0.00,Wunderground v.1.15,2015-05-24 19:35:00,
2015-05-24 12:40:00,72.9,45.1,29.90,NE,40,1.0,5.0,37,0.00,,,0.00,Wunderground v.1.15,2015-05-24 19:40:00,
2015-05-24 12:45:00,73.9,43.0,29.90,South,172,1.0,10.0,33,0.00,,,0.00,Wunderground v.1.15,2015-05-24 19:45:00,
2015-05-24 12:50:00,73.8,42.9,29.90,SSW,209,6.0,10.0,33,0.00,,,0.00,Wunderground v.1.15,2015-05-24 19:50:00,
2015-05-24 12:55:00,73.7,43.6,29.90,South,183,4.0,11.0,34,0.00,,,0.00,Wunderground v.1.15,2015-05-24 19:55:00,
2015-05-24 13:00:00,73.6,43.5,29.89,South,174,0.0,5.0,34,0.00,,,0.00,Wunderground v.1.15,2015-05-24 20:00:00,
2015-05-24 13:05:00,74.1,44.7,29.89,WSW,256,0.0,7.0,35,0.00,,,0.00,Wunderground v.1.15,2015-05-24 20:05:00,
2015-05-24 13:10:00,75.1,44.8,29.89,SSW,194,5.0,7.0,34,0.00,,,0.00,Wunderground v.1.15,2015-05-24 20:10:00,
2015-05-24 13:15:00,74.8,43.8,29.89,WSW,246,8.0,10.0,33,0.00,,,0.00,Wunderground v.1.15,2015-05-24 20:15:00,
2015-05-24 13:21:00,74.3,44.1,29.89,WSW,254,3.0,6.0,34,0.00,,,0.00,Wunderground v.1.15,2015-05-24 20:21:00,
2015-05-24 13:25:00,74.2,45.5,29.88,West,263,9.0,9.0,36,0.00,,,0.00,Wunderground v.1.15,2015-05-24 20:25:00,
2015-05-24 13:30:00,74.1,45.4,29.88,WSW,248,6.0,11.0,36,0.00,,,0.00,Wunderground v.1.15,2015-05-24 20:30:00,
2015-05-24 13:35:00,73.4,46.9,29.88,SW,225,0.0,13.0,39,0.00,,,0.00,Wunderground v.1.15,2015-05-24 20:35:00,
2015-05-24 13:40:00,74.5,48.6,29.88,ESE,108,2.0,4.0,40,0.00,,,0.00,Wunderground v.1.15,2015-05-24 20:40:00,
2015-05-24 13:46:00,74.6,46.6,29.87,SW,229,4.0,6.0,37,0.00,,,0.00,Wunderground v.1.15,2015-05-24 20:46:00,
2015-05-24 13:51:00,74.4,47.8,29.87,WSW,246,6.0,8.0,39,0.00,,,0.00,Wunderground v.1.15,2015-05-24 20:51:00,
2015-05-24 13:56:00,74.7,47.4,29.87,WSW,238,9.0,14.0,38,0.00,,,0.00,Wunderground v.1.15,2015-05-24 20:56:00,
2015-05-24 14:00:00,74.1,47.6,29.87,SSW,205,4.0,9.0,39,0.00,,,0.00,Wunderground v.1.15,2015-05-24 21:00:00,
2015-05-24 14:06:00,74.1,47.6,29.86,WSW,257,3.0,9.0,39,0.00,,,0.00,Wunderground v.1.15,2015-05-24 21:06:00,
2015-05-24 14:11:00,73.7,47.2,29.86,SW,222,7.0,8.0,39,0.00,,,0.00,Wunderground v.1.15,2015-05-24 21:11:00,
2015-05-24 14:16:00,73.4,48.9,29.86,SSW,205,6.0,12.0,42,0.00,,,0.00,Wunderground v.1.15,2015-05-24 21:16:00,
2015-05-24 14:26:00,74.0,50.1,29.85,SW,236,14.0,14.0,43,0.00,,,0.00,Wunderground v.1.15,2015-05-24 21:26:00,
2015-05-24 14:31:00,73.8,48.6,29.86,SW,223,6.0,13.0,41,0.00,,,0.00,Wunderground v.1.15,2015-05-24 21:31:00,
2015-05-24 14:36:00,74.5,47.9,29.85,SSW,196,11.0,13.0,39,0.00,,,0.00,Wunderground v.1.15,2015-05-24 21:36:00,
2015-05-24 14:41:00,74.3,47.7,29.85,SSW,201,7.0,10.0,39,0.00,,,0.00,Wunderground v.1.15,2015-05-24 21:41:00,
2015-05-24 14:46:00,74.4,47.8,29.85,SSW,203,8.0,15.0,39,0.00,,,0.00,Wunderground v.1.15,2015-05-24 21:46:00,
2015-05-24 14:51:00,74.2,48.3,29.85,South,175,6.0,9.0,40,0.00,,,0.00,Wunderground v.1.15,2015-05-24 21:51:00,
2015-05-24 14:56:00,74.4,49.2,29.84,West,272,8.0,10.0,41,0.00,,,0.00,Wunderground v.1.15,2015-05-24 21:56:00,
2015-05-24 15:01:00,74.9,48.3,29.85,WSW,240,13.0,14.0,39,0.00,,,0.00,Wunderground v.1.15,2015-05-24 22:01:00,
2015-05-24 15:06:00,74.4,48.5,29.84,WSW,257,6.0,14.0,40,0.00,,,0.00,Wunderground v.1.15,2015-05-24 22:06:00,
2015-05-24 15:11:00,74.8,48.2,29.84,SW,223,8.0,10.0,39,0.00,,,0.00,Wunderground v.1.15,2015-05-24 22:11:00,
2015-05-24 15:16:00,74.2,47.6,29.84,West,273,6.0,10.0,39,0.00,,,0.00,Wunderground v.1.15,2015-05-24 22:16:00,
2015-05-24 15:22:00,74.2,47.6,29.84,SW,215,13.0,13.0,39,0.00,,,0.00,Wunderground v.1.15,2015-05-24 22:22:00,
2015-05-24 15:27:00,74.6,47.3,29.84,WSW,239,0.0,13.0,38,0.00,,,0.00,Wunderground v.1.15,2015-05-24 22:27:00,
2015-05-24 15:32:00,74.6,48.0,29.83,WSW,244,4.0,10.0,39,0.00,,,0.00,Wunderground v.1.15,2015-05-24 22:32:00,
2015-05-24 15:37:00,74.6,48.0,29.83,WSW,251,10.0,11.0,39,0.00,,,0.00,Wunderground v.1.15,2015-05-24 22:37:00,
2015-05-24 15:42:00,74.6,47.3,29.84,SW,221,8.0,13.0,38,0.00,,,0.00,Wunderground v.1.15,2015-05-24 22:42:00,
2015-05-24 15:47:00,74.3,47.0,29.83,WSW,246,7.0,13.0,38,0.00,,,0.00,Wunderground v.1.15,2015-05-24 22:47:00,
2015-05-24 15:52:00,74.4,47.1,29.83,West,261,4.0,6.0,38,0.00,,,0.00,Wunderground v.1.15,2015-05-24 22:52:00,
2015-05-24 15:57:00,74.7,47.4,29.83,WSW,238,7.0,8.0,38,0.00,,,0.00,Wunderground v.1.15,2015-05-24 22:57:00,
2015-05-24 16:02:00,74.9,48.3,29.83,WSW,250,7.0,10.0,39,0.00,,,0.00,Wunderground v.1.15,2015-05-24 23:02:00,
2015-05-24 16:07:00,74.6,47.3,29.83,WSW,242,4.0,11.0,38,0.00,,,0.00,Wunderground v.1.15,2015-05-24 23:07:00,
2015-05-24 16:12:00,74.8,48.2,29.83,SW,219,8.0,8.0,39,0.00,,,0.00,Wunderground v.1.15,2015-05-24 23:12:00,
2015-05-24 16:17:00,74.9,47.6,29.82,WSW,239,9.0,10.0,38,0.00,,,0.00,Wunderground v.1.15,2015-05-24 23:17:00,
2015-05-24 16:22:00,74.6,47.3,29.82,WSW,251,5.0,9.0,38,0.00,,,0.00,Wunderground v.1.15,2015-05-24 23:22:00,
2015-05-24 16:32:00,74.1,46.9,29.82,SSW,212,7.0,9.0,38,0.00,,,0.00,Wunderground v.1.15,2015-05-24 23:32:00,
2015-05-24 16:37:00,74.4,47.8,29.82,WSW,239,2.0,13.0,39,0.00,,,0.00,Wunderground v.1.15,2015-05-24 23:37:00,
2015-05-24 16:42:00,74.9,47.6,29.82,West,259,7.0,7.0,38,0.00,,,0.00,Wunderground v.1.15,2015-05-24 23:42:00,
2015-05-24 16:47:00,74.5,46.5,29.82,SW,236,9.0,10.0,37,0.00,,,0.00,Wunderground v.1.15,2015-05-24 23:47:00,
2015-05-24 16:52:00,74.1,46.9,29.82,WSW,238,5.0,9.0,38,0.00,,,0.00,Wunderground v.1.15,2015-05-24 23:52:00,
2015-05-24 17:02:00,73.8,46.6,29.82,SSW,211,7.0,14.0,38,0.00,,,0.00,Wunderground v.1.15,2015-05-25 00:02:00,
2015-05-24 17:07:00,73.9,47.4,29.81,SW,215,5.0,14.0,39,0.00,,,0.00,Wunderground v.1.15,2015-05-25 00:07:00,
2015-05-24 17:12:00,74.2,47.6,29.81,SSW,206,8.0,10.0,39,0.00,,,0.00,Wunderground v.1.15,2015-05-25 00:12:00,
2015-05-24 17:17:00,74.2,47.6,29.81,SW,225,10.0,12.0,39,0.00,,,0.00,Wunderground v.1.15,2015-05-25 00:17:00,
2015-05-24 17:22:00,74.0,46.8,29.81,SW,222,9.0,12.0,38,0.00,,,0.00,Wunderground v.1.15,2015-05-25 00:22:00,
2015-05-24 17:27:00,74.0,46.8,29.81,WSW,240,8.0,14.0,38,0.00,,,0.00,Wunderground v.1.15,2015-05-25 00:27:00,
2015-05-24 17:32:00,74.0,46.1,29.81,SW,221,6.0,14.0,37,0.00,,,0.00,Wunderground v.1.15,2015-05-25 00:32:00,
2015-05-24 17:37:00,73.9,46.0,29.80,SSW,194,7.0,14.0,37,0.00,,,0.00,Wunderground v.1.15,2015-05-25 00:37:00,
2015-05-24 17:42:00,74.0,46.1,29.80,WSW,245,10.0,12.0,37,0.00,,,0.00,Wunderground v.1.15,2015-05-25 00:42:00,
2015-05-24 17:47:00,73.8,46.6,29.80,WSW,257,6.0,12.0,38,0.00,,,0.00,Wunderground v.1.15,2015-05-25 00:47:00,
2015-05-24 17:52:00,73.8,46.6,29.80,WSW,238,8.0,9.0,38,0.00,,,0.00,Wunderground v.1.15,2015-05-25 00:52:00,
2015-05-24 17:57:00,73.6,46.4,29.80,SSW,212,7.0,10.0,38,0.00,,,0.00,Wunderground v.1.15,2015-05-25 00:57:00,
2015-05-24 18:02:00,73.4,46.9,29.79,SW,219,9.0,11.0,39,0.00,,,0.00,Wunderground v.1.15,2015-05-25 01:02:00,
2015-05-24 18:07:00,73.2,46.8,29.80,SW,219,7.0,12.0,39,0.00,,,0.00,Wunderground v.1.15,2015-05-25 01:07:00,
2015-05-24 18:12:00,73.1,46.0,29.80,SW,218,6.0,10.0,38,0.00,,,0.00,Wunderground v.1.15,2015-05-25 01:12:00,
2015-05-24 18:17:00,73.0,46.6,29.80,SW,219,7.0,10.0,39,0.00,,,0.00,Wunderground v.1.15,2015-05-25 01:17:00,
2015-05-24 18:22:00,73.0,46.6,29.79,SSW,208,5.0,8.0,39,0.00,,,0.00,Wunderground v.1.15,2015-05-25 01:22:00,
2015-05-24 18:27:00,72.9,46.5,29.79,SW,222,5.0,8.0,39,0.00,,,0.00,Wunderground v.1.15,2015-05-25 01:27:00,
2015-05-24 18:33:00,72.9,47.2,29.79,SW,222,5.0,6.0,40,0.00,,,0.00,Wunderground v.1.15,2015-05-25 01:33:00,
2015-05-24 18:38:00,72.7,47.6,29.79,SW,231,6.0,9.0,41,0.00,,,0.00,Wunderground v.1.15,2015-05-25 01:38:00,
2015-05-24 18:43:00,72.5,46.8,29.79,SW,225,7.0,10.0,40,0.00,,,0.00,Wunderground v.1.15,2015-05-25 01:43:00,
2015-05-24 18:48:00,72.5,47.5,29.79,SW,223,7.0,10.0,41,0.00,,,0.00,Wunderground v.1.15,2015-05-25 01:48:00,
2015-05-24 18:53:00,72.4,48.0,29.79,WSW,238,8.0,11.0,42,0.00,,,0.00,Wunderground v.1.15,2015-05-25 01:53:00,
2015-05-24 18:58:00,72.2,48.5,29.79,WSW,239,4.0,11.0,43,0.00,,,0.00,Wunderground v.1.15,2015-05-25 01:58:00,
2015-05-24 19:03:00,72.1,48.4,29.79,SW,219,5.0,8.0,43,0.00,,,0.00,Wunderground v.1.15,2015-05-25 02:03:00,
2015-05-24 19:08:00,72.0,48.9,29.79,SW,216,6.0,8.0,44,0.00,,,0.00,Wunderground v.1.15,2015-05-25 02:08:00,
2015-05-24 19:13:00,71.9,48.8,29.79,SW,214,6.0,8.0,44,0.00,,,0.00,Wunderground v.1.15,2015-05-25 02:13:00,
2015-05-24 19:18:00,71.8,48.7,29.79,SW,219,5.0,8.0,44,0.00,,,0.00,Wunderground v.1.15,2015-05-25 02:18:00,
2015-05-24 19:23:00,71.7,48.6,29.79,SSW,211,7.0,8.0,44,0.00,,,0.00,Wunderground v.1.15,2015-05-25 02:23:00,
2015-05-24 19:28:00,71.6,48.5,29.79,SSW,207,7.0,8.0,44,0.00,,,0.00,Wunderground v.1.15,2015-05-25 02:28:00,
2015-05-24 19:33:00,71.3,48.9,29.79,SSW,207,5.0,6.0,45,0.00,,,0.00,Wunderground v.1.15,2015-05-25 02:33:00,
2015-05-24 19:39:00,71.0,48.0,29.79,SSW,207,3.0,6.0,44,0.00,,,0.00,Wunderground v.1.15,2015-05-25 02:39:00,
2015-05-24 19:44:00,70.9,48.5,29.79,SSW,207,3.0,6.0,45,0.00,,,0.00,Wunderground v.1.15,2015-05-25 02:44:00,
2015-05-24 19:49:00,70.7,48.3,29.80,SSW,207,3.0,6.0,45,0.00,,,0.00,Wunderground v.1.15,2015-05-25 02:49:00,
2015-05-24 19:54:00,70.6,47.6,29.79,SSW,207,4.0,6.0,44,0.00,,,0.00,Wunderground v.1.15,2015-05-25 02:54:00,
2015-05-24 19:59:00,70.4,48.0,29.80,SSW,207,3.0,6.0,45,0.00,,,0.00,Wunderground v.1.15,2015-05-25 02:59:00,
2015-05-24 20:04:00,70.4,48.0,29.80,SSW,207,5.0,6.0,45,0.00,,,0.00,Wunderground v.1.15,2015-05-25 03:04:00,
2015-05-24 20:09:00,70.3,47.9,29.79,SSW,207,4.0,6.0,45,0.00,,,0.00,Wunderground v.1.15,2015-05-25 03:09:00,
2015-05-24 20:14:00,70.3,47.9,29.79,SSW,207,5.0,7.0,45,0.00,,,0.00,Wunderground v.1.15,2015-05-25 03:14:00,
2015-05-24 20:19:00,70.1,48.4,29.79,SSW,207,6.0,7.0,46,0.00,,,0.00,Wunderground v.1.15,2015-05-25 03:19:00,
2015-05-24 20:24:00,69.9,48.2,29.80,SSW,207,3.0,6.0,46,0.00,,,0.00,Wunderground v.1.15,2015-05-25 03:24:00,
2015-05-24 20:29:00,69.9,48.2,29.80,SSW,207,2.0,6.0,46,0.00,,,0.00,Wunderground v.1.15,2015-05-25 03:29:00,
2015-05-24 20:34:00,69.9,48.2,29.80,SSW,207,0.0,4.0,46,0.00,,,0.00,Wunderground v.1.15,2015-05-25 03:34:00,
2015-05-24 20:39:00,69.5,48.9,29.80,ENE,59,5.0,5.0,48,0.00,,,0.00,Wunderground v.1.15,2015-05-25 03:39:00,
2015-05-24 20:44:00,68.3,48.9,29.80,NE,52,0.0,5.0,50,0.00,,,0.00,Wunderground v.1.15,2015-05-25 03:44:00,
2015-05-24 20:49:00,67.8,49.0,29.80,NE,52,0.0,5.0,51,0.00,,,0.00,Wunderground v.1.15,2015-05-25 03:49:00,
2015-05-24 20:55:00,67.6,48.8,29.80,NE,52,0.0,3.0,51,0.00,,,0.00,Wunderground v.1.15,2015-05-25 03:55:00,
2015-05-24 21:00:00,67.2,48.5,29.80,NE,52,1.0,2.0,51,0.00,,,0.00,Wunderground v.1.15,2015-05-25 04:00:00,
2015-05-24 21:05:00,66.8,48.6,29.80,NE,52,3.0,5.0,52,0.00,,,0.00,Wunderground v.1.15,2015-05-25 04:05:00,
2015-05-24 21:10:00,66.7,48.5,29.80,NE,52,4.0,4.0,52,0.00,,,0.00,Wunderground v.1.15,2015-05-25 04:10:00,
2015-05-24 21:15:00,66.7,48.5,29.81,NNE,23,7.0,7.0,52,0.00,,,0.00,Wunderground v.1.15,2015-05-25 04:15:00,